Back to catalog

BREEZE-M DEB

TANK

AliveHEO
NORAD 37260·DEBRIS·🇷🇺 Russia

Launched Dec 26, 2010 from Baikonur Cosmodrome

Loading…

Next Passes (next 24 hours)

TLE

FreshSource: Space-Track

Epoch: Sep 12, 2026, 16:37 UTC

1 37260U 10069C   26255.69239007  .00001190  00000-0  33995-3 0  9993
2 37260  49.5939 314.6035 4939868 104.4466 313.4153  5.68207881316143

Track BREEZE-M DEB in real time with AllMySat

Download on the App Store